EW0608 Weather Reports


time (UTC)temp
C
wind
direction
speed
KPH
gust
KPH
rain 1hr
cm
rain 24hr
cm
rain mn
cm
humidity
%
barometer
mb
20260504035903 5 309 0.0 0.0 0.00 0.91 0.91 77 1015.0
20260504035434 5 309 0.0 0.0 0.00 0.91 0.91 76 1015.0
20260504034902 5 309 0.0 0.0 0.00 0.91 0.91 77 1015.0
20260504034554 5 309 0.0 0.0 0.00 0.91 0.91 78 1015.4
20260504034354 5 309 0.0 0.0 0.00 0.91 0.91 78 1014.9
20260504033845 5 309 0.0 0.0 0.00 0.91 0.91 77 1015.0
20260504033337 5 309 0.0 0.0 0.00 0.91 0.91 77 1014.9
20260504033051 5 309 0.0 0.0 0.00 0.91 0.91 76 1015.2
20260504032850 5 309 0.0 0.0 0.00 0.91 0.91 76 1014.7
20260504032401 5 309 0.0 0.0 0.00 0.91 0.91 76 1014.7
20260504031853 6 309 0.0 0.0 0.00 0.91 0.91 76 1014.7
20260504031524 5 309 0.0 0.0 0.00 0.91 0.91 76 1015.1
20260504030910 6 309 0.0 0.0 0.00 0.91 0.91 72 1014.7
20260504030340 6 309 0.0 0.0 0.00 0.91 0.91 72 1014.8
20260504030049 6 309 0.0 0.0 0.00 0.91 0.91 71 1015.2
20260504025849 6 309 0.0 0.0 0.00 0.91 0.91 70 1014.7
20260504025346 6 309 0.0 0.0 0.00 0.91 0.91 69 1014.7
20260504024837 6 309 0.0 0.0 0.00 0.91 0.91 74 1014.8
20260504024606 6 23 0.0 0.0 0.00 0.91 0.91 74 1015.2
20260504024350 6 23 0.0 0.0 0.00 0.91 0.91 73 1014.8
20260504023843 6 23 0.0 0.0 0.00 0.91 0.91 71 1014.8
20260504023356 7 23 0.0 0.0 0.00 0.91 0.91 70 1014.7
20260504023049 6 23 0.0 0.0 0.00 0.91 0.91 70 1015.1
20260504022847 7 23 0.0 0.0 0.00 0.91 0.91 70 1014.6
20260504022338 7 23 0.0 0.0 0.00 0.91 0.91 70 1014.7
20260504021530 6 23 0.0 0.0 0.00 0.91 0.91 71 1015.2
20260504020840 7 23 0.0 0.0 0.00 0.91 0.91 69 1014.6
20260504020352 7 23 0.0 0.0 0.00 0.91 0.91 69 1014.5
20260504020043 7 23 0.0 0.0 0.00 0.91 0.91 68 1014.9
20260504015841 7 23 0.0 0.0 0.00 0.91 0.91 66 1014.5
20260504015412 7 23 0.0 0.0 0.00 0.91 0.91 66 1014.4
20260504014843 7 23 0.0 0.0 0.00 0.91 0.91 65 1014.4
20260504014604 7 23 0.0 0.0 0.00 0.91 0.91 64 1014.7
20260504014355 7 23 0.0 0.0 0.00 0.91 0.91 64 1014.3
20260504013848 7 23 0.0 0.0 0.00 0.91 0.91 64 1014.2
20260504013341 8 23 0.0 0.0 0.00 0.91 0.91 66 1014.1
20260504013056 7 23 0.0 0.0 0.00 0.91 0.91 65 1014.5
20260504012852 8 23 0.0 0.0 0.00 0.91 0.91 62 1014.1
20260504012341 8 23 0.0 0.0 0.00 0.91 0.91 60 1014.1
20260504011854 8 23 0.0 0.0 0.00 0.91 0.91 60 1014.0
20260504011545 8 23 0.0 0.0 0.00 0.91 0.91 59 1014.4
20260504011344 8 23 0.0 0.0 0.00 0.91 0.91 59 1014.0
20260504010857 8 23 0.0 0.0 0.00 0.91 0.91 60 1014.0
20260504010350 8 23 0.0 0.0 0.00 0.91 0.91 59 1014.0
20260504010040 8 23 0.0 0.0 0.00 0.91 0.91 58 1014.3
20260504005837 8 23 0.0 0.0 0.00 0.91 0.91 57 1013.9
20260504005349 9 23 0.0 0.0 0.00 0.91 0.91 57 1014.0
20260504004840 9 23 0.0 0.0 0.00 0.91 0.91 55 1013.9
20260504004553 9 23 0.0 0.0 0.00 0.91 0.91 55 1014.3
20260504004352 9 23 0.0 0.0 0.00 0.91 0.91 54 1013.9
20260504003845 10 23 0.0 0.0 0.00 0.91 0.91 55 1013.8
20260504003340 10 23 0.0 0.0 0.00 0.91 0.91 53 1013.8
20260504003010 10 23 0.0 0.0 0.00 0.91 0.91 52 1014.2
20260504002909 10 23 0.0 0.0 0.00 0.91 0.91 51 1013.8
20260504002359 11 23 0.0 0.0 0.00 0.91 0.91 50 1013.7
20260504001851 11 23 0.0 0.0 0.00 0.91 0.91 50 1013.7
20260504001550 11 23 0.0 0.0 0.00 0.91 0.91 50 1014.2
20260504001347 11 23 0.0 0.0 0.00 0.91 0.91 51 1013.7
20260504000838 11 23 0.0 0.0 0.00 0.91 0.91 50 1013.7
20260504000354 11 23 0.0 0.0 0.00 0.91 0.91 50 1013.7
20260504000059 11 23 0.0 0.0 0.00 0.91 0.91 50 1014.1
20260503235414 12 23 0.0 0.0 0.00 0.91 0.91 50 1013.5
20260503234846 12 23 0.0 0.0 0.00 0.91 0.91 51 1013.5
20260503234549 12 23 0.0 0.0 0.00 0.91 0.91 45 1013.9
20260503234337 13 23 0.0 0.0 0.00 0.91 0.91 44 1013.5
20260503233850 13 304 0.0 0.0 0.00 0.91 0.91 42 1013.4
20260503233341 14 304 0.0 1.6 0.00 0.91 0.91 35 1013.4
20260503233013 13 335 0.0 1.6 0.03 0.91 0.91 36 1013.9
20260503232913 14 347 0.0 1.6 0.03 0.91 0.91 36 1013.5
20260503232345 14 55 0.0 6.4 0.03 0.91 0.91 36 1013.4
20260503231916 15 42 0.0 8.0 0.03 0.91 0.91 34 1013.4
20260503231509 15 217 3.2 8.0 0.03 0.91 0.91 34 1013.8
20260503231408 15 300 3.2 8.0 0.08 0.91 0.91 35 1013.4
20260503230840 15 46 1.6 6.4 0.08 0.91 0.91 32 1013.3
20260503230413 15 10 4.8 9.7 0.08 0.91 0.91 31 1013.3
20260503230042 15 61 1.6 9.7 0.08 0.91 0.91 32 1013.8
20260503225841 15 61 4.8 9.7 0.08 0.91 0.91 31 1013.3
20260503225353 15 50 3.2 8.0 0.08 0.91 0.91 31 1013.4
20260503224846 16 335 3.2 11.3 0.08 0.91 0.91 31 1013.3
20260503224558 15 24 3.2 11.3 0.08 0.91 0.91 31 1013.8
20260503224358 16 168 3.2 11.3 0.08 0.91 0.91 31 1013.4
20260503223849 16 331 3.2 8.0 0.08 0.91 0.91 31 1013.2
20260503223340 16 147 4.8 9.7 0.05 0.89 0.89 31 1013.2
20260503223054 15 5 3.2 9.7 0.05 0.89 0.89 30 1013.6
20260503222853 16 19 4.8 9.7 0.05 0.89 0.89 30 1013.2
20260503222345 16 317 3.2 14.5 0.05 0.89 0.89 29 1013.2
20260503221836 16 32 3.2 14.5 0.05 0.89 0.89 30 1013.3
20260503221508 15 133 8.0 14.5 0.05 0.89 0.89 30 1013.7
20260503221408 16 298 6.4 11.3 0.00 0.84 0.84 30 1013.3
20260503220900 16 44 4.8 9.7 0.00 0.84 0.84 30 1013.3
20260503220353 16 139 3.2 12.9 0.03 0.84 0.84 31 1013.3
20260503220042 15 5 3.2 12.9 0.03 0.84 0.84 30 1013.8
20260503215842 16 355 8.0 12.9 0.03 0.84 0.84 29 1013.4
20260503215414 16 335 6.4 11.3 0.03 0.84 0.84 30 1013.5
20260503214925 16 22 4.8 11.3 0.03 0.84 0.84 29 1013.5
20260503214553 16 209 1.6 12.9 0.03 0.84 0.84 31 1014.0
20260503214352 16 119 4.8 16.1 0.03 0.84 0.84 30 1013.4
20260503213904 16 254 6.4 16.1 0.03 0.84 0.84 30 1013.4
20260503213334 16 52 3.2 11.3 0.03 0.84 0.84 29 1013.4
20260503213048 16 334 4.8 11.3 0.03 0.84 0.84 29 1013.9
20260503212847 16 360 4.8 11.3 0.03 0.84 0.84 30 1013.3
20260503212339 16 156 6.4 11.3 0.03 0.84 0.84 30 1013.4
20260503211912 16 280 3.2 12.9 0.13 0.84 0.84 30 1013.5
20260503211544 15 138 3.2 12.9 0.13 0.84 0.84 30 1014.0
20260503211342 16 78 6.4 17.7 0.13 0.84 0.84 29 1013.5
20260503210835 16 68 4.8 17.7 0.13 0.84 0.84 29 1013.5
20260503210348 16 316 3.2 12.9 0.10 0.81 0.81 29 1013.4
20260503210039 16 334 4.8 12.9 0.10 0.81 0.81 29 1014.0
20260503205837 16 301 4.8 12.9 0.10 0.81 0.81 30 1013.5
20260503205350 16 284 3.2 11.3 0.10 0.81 0.81 30 1013.6
20260503204902 16 140 4.8 11.3 0.10 0.81 0.81 29 1013.7
20260503204555 16 250 3.2 11.3 0.10 0.81 0.81 29 1014.1
20260503204354 16 265 3.2 11.3 0.10 0.81 0.81 28 1013.7
20260503203846 17 78 4.8 11.3 0.10 0.81 0.81 29 1013.8
20260503203336 16 49 3.2 19.3 0.10 0.81 0.81 29 1013.7
20260503203105 16 355 1.6 19.3 0.10 0.81 0.81 30 1014.3
20260503202848 16 303 3.2 19.3 0.10 0.81 0.81 29 1013.8
20260503202345 16 32 6.4 17.7 0.08 0.76 0.76 29 1014.0
20260503201855 16 82 4.8 9.7 0.03 0.71 0.71 29 1013.8
20260503201548 16 283 3.2 14.5 0.03 0.71 0.71 28 1014.4
20260503201346 16 277 4.8 14.5 0.03 0.71 0.71 30 1013.9
20260503200857 16 61 6.4 16.1 0.03 0.71 0.71 30 1013.9
20260503200410 17 299 4.8 12.9 0.03 0.71 0.71 30 1013.9
20260503200059 16 29 6.4 14.5 0.03 0.71 0.71 30 1014.5
20260503195858 16 176 3.2 9.7 0.05 0.71 0.71 29 1014.2
20260503195350 16 325 6.4 11.3 0.05 0.71 0.71 29 1014.1
20260503194842 15 46 6.4 11.3 0.05 0.71 0.71 31 1014.2
20260503194540 15 9 4.8 11.3 0.05 0.71 0.71 30 1014.6
20260503194336 15 60 4.8 11.3 0.05 0.71 0.71 30 1014.2
20260503193849 16 257 3.2 12.9 0.05 0.71 0.71 31 1014.2
20260503193341 15 187 3.2 12.9 0.05 0.71 0.71 31 1014.3
20260503193054 15 205 4.8 17.7 0.05 0.71 0.71 30 1014.9
20260503192853 16 199 8.0 17.7 0.05 0.71 0.71 29 1014.5
20260503192426 16 315 8.0 19.3 0.03 0.69 0.69 29 1014.5
20260503191853 17 55 8.0 19.3 0.03 0.69 0.69 28 1014.6
20260503191546 17 355 6.4 19.3 0.03 0.69 0.69 29 1014.9
20260503191346 17 5 6.4 11.3 0.03 0.69 0.69 29 1014.5
20260503190838 17 284 6.4 12.9 0.03 0.69 0.69 28 1014.6
20260503190352 16 355 4.8 12.9 0.03 0.69 0.69 31 1014.5
20260503190022 16 242 4.8 12.9 0.00 0.66 0.66 31 1015.2
20260503185921 16 283 8.0 11.3 0.00 0.66 0.66 30 1014.7
20260503185347 15 260 6.4 14.5 0.00 0.66 0.66 31 1014.7
20260503184839 15 326 4.8 12.9 0.00 0.66 0.66 30 1014.8
20260503184554 16 240 4.8 12.9 0.00 0.66 0.66 29 1015.4
20260503184353 16 44 6.4 12.9 0.00 0.66 0.66 30 1014.9
20260503183844 16 342 4.8 11.3 0.00 0.66 0.66 30 1014.9
20260503183339 16 331 3.2 9.7 0.00 0.66 0.66 30 1014.9
20260503183011 16 281 4.8 9.7 0.00 0.66 0.66 29 1015.5
20260503182911 17 236 3.2 11.3 0.00 0.66 0.66 29 1015.0
20260503182343 16 329 4.8 14.5 0.00 0.66 0.66 29 1015.0
20260503181836 16 90 4.8 14.5 0.00 0.66 0.66 32 1014.9
20260503181600 16 344 8.0 12.9 0.00 0.66 0.66 29 1015.5
20260503180905 16 300 4.8 11.3 0.00 0.66 0.66 30 1015.1
20260503180357 15 239 4.8 11.3 0.00 0.66 0.66 33 1014.9
20260503180047 15 260 4.8 9.7 0.00 0.66 0.66 29 1015.5
20260503175846 15 67 6.4 11.3 0.00 0.66 0.66 31 1015.1
20260503175338 14 296 6.4 11.3 0.05 0.66 0.66 30 1015.3
20260503174851 14 306 3.2 19.3 0.10 0.66 0.66 31 1015.3
20260503174510 15 345 3.2 19.3 0.13 0.66 0.66 30 1015.8
20260503174403 15 20 4.8 19.3 0.13 0.66 0.66 30 1015.4
20260503173914 15 69 4.8 12.9 0.13 0.66 0.66 32 1015.5
20260503173407 14 329 3.2 14.5 0.13 0.66 0.66 32 1015.4
20260503173051 13 136 6.4 14.5 0.13 0.66 0.66 33 1015.9
20260503172838 13 35 3.2 12.9 0.13 0.66 0.66 32 1015.5
20260503172350 14 266 6.4 17.7 0.15 0.66 0.66 32 1015.6
20260503171843 14 251 6.4 17.7 0.15 0.66 0.66 31 1015.6
20260503171540 14 276 3.2 11.3 0.15 0.66 0.66 31 1016.1
20260503171335 14 115 4.8 14.5 0.15 0.66 0.66 32 1015.8
20260503170847 14 344 6.4 14.5 0.15 0.66 0.66 34 1015.8
20260503170342 13 30 526.3 526.3 0.00 0.00 0.66 34 1015.7
20260503150850 11 344 3.2 9.7 0.08 0.13 0.13 43 1017.1
20260503150343 10 54 1.6 14.5 0.08 0.13 0.13 48 1017.2
20260503081532 2 33 0.0 0.0 0.00 0.00 0.00 89 1015.7
20260503071526 2 33 0.0 0.0 0.00 0.00 0.00 89 1015.2
20260503054518 1 33 0.0 0.0 0.00 0.00 0.00 87 1015.0
20260503053017 1 33 0.0 0.0 0.00 0.00 0.00 86 1015.0
20260503051512 2 33 0.0 0.0 0.00 0.00 0.00 84 1015.1
20260503050010 2 33 0.0 0.0 0.00 0.00 0.00 83 1015.1
20260503045348 2 33 0.0 0.0 0.00 0.00 0.00 82 1014.7
20260503044839 3 33 0.0 0.0 0.00 0.00 0.00 82 1014.8
20260503044604 2 33 0.0 0.0 0.00 0.00 0.00 82 1015.1
20260503044353 3 33 0.0 0.0 0.00 0.00 0.00 81 1014.7
20260503043844 3 33 0.0 0.0 0.00 0.00 0.00 80 1014.7
20260503043336 3 33 0.0 0.0 0.00 0.00 0.00 80 1014.8
20260503043055 3 33 0.0 0.0 0.00 0.00 0.00 79 1015.1
20260503042849 3 33 0.0 0.0 0.00 0.00 0.00 79 1014.7
20260503042342 3 33 0.0 0.0 0.00 0.00 0.00 78 1014.7
20260503041529 3 33 0.0 0.0 0.00 0.00 0.00 78 1015.1
20260503041428 3 33 0.0 0.0 0.00 0.00 0.00 77 1014.8
20260503040836 4 33 0.0 0.0 0.00 0.00 0.00 76 1014.8
20260503040351 4 33 0.0 1.6 0.00 0.00 0.00 75 1014.7
20260503040047 4 33 0.0 1.6 0.00 0.00 0.00 74 1015.1